STARLINK-11629, 63104

Orbit data source: Space-Track

STARLINK-11629, 63104 is a payload satellite owned by SpaceX/Seattle (US) in LEO that was launched on Thu, 27 Feb 2025 UTC via an FALCON 9 launch vehicle from the Air Force Eastern Test Range (AFETR). Payload-class satellites include a variety of spacecraft equipped with specific instruments for various scientific and technological missions. These include communications satellites like Starlink; space stations such as the ISS; scientific satellites like the Hubble; Earth observation satellites from companies like Planet Labs, Umbra, and HawkEye 360; GPS; miniature CubeSats for education and research; and military/defense satellites.

Loading next visibility...
Identifier
63104, 2025-039A
Orbit
LEO
Last TLE update
19 hours ago
Origin
Manufacturer
SpaceX/Seattle
Mission
Operational Commercial Communications
Bus & Motor
STARLINK V2M, Unknown motor
Mass
730 kg wet, ~700 kg dry
Launch date (UTC)
2025-02-27 (2 months ago)
Launch vehicle
FALCON 9
Launch site
Air Force Eastern Test Range (AFETR)
Object type
Payload
Rocket body
Debris
Shape & HBR
Box + 2 Pan, 29 m
Radar Cross Section
36.964 m², Large (>1 m²)

Expand to show TLE details & history

TLE from 19 hours ago
0 STARLINK-11629
1 63104U 25039A   25128.49002996  .00000836  00000-0  76676-5 0  9994
2 63104  42.9990 278.4473 0001831 267.4712  92.5949 15.77859361 11592
Epoch: 2025-05-08T11:45Z
Definitive object data (Epoch: 2025-05-08T11:45:38.588Z)
Latitude
0.00001°
Longitude
-124.52326°
Altitude
336.333 km
Speed
7.709 km/s
True Right ascension
18h 33m 47s
True Declination
0° 00' 00"
Sunlit
Object was in full shadow at TLE epoch
Visualization TLE readout
Latitude
35.89744°
Longitude
0.19789°
Altitude
339.186 km
Speed
7.71 km/s
Apparent Right ascension
02h 46m 10s
Apparent Declination
0° 50' 51"
Sunlit
Object is in daylight
Visualization observer readout
Local Sidereal Time
14:38:55
Azimuth
357.132° N
Elevation
-50.897°
Doppler factor
1
Orbital elements
Apogee altitude
339.724 km
Perigee altitude
337.265 km
Semi-major axis
6,716.631 km
Eccentricity
0.0001831
Inclination
42.999°
RAAN
278.4473°
Arg. of periapsis
267.4712°
True anomaly
92.61586°
Mean anomaly
92.5949°
Eccentric anomaly
92.60538°
Mean motion
3.9429 °/min
BSTAR
0.0000076676
Orbital period
91.3 mins
Loading maneuver chart data...
Loading SW <> Apogee altitude chart data...
Loading historical data...
Loading historical data...
Loading historical data...
Loading historical data...
Loading historical data...
Loading historical data...
Loading historical data...

STARLINK-11629 Visibility forecast

Observer location: undefined°, undefined°

Span
Click to sort rows by Start time (UTC) header in descending order
Start Az.
Max El. time (UTC)
Max El. Az.
Max El.
End time (UTC)
End Az.
4 mins2025-05-09 15:26:05.181Z289.295° WNW2025-05-09 15:28:05.181Z15.909° NNE33.56°2025-05-09 15:30:05.181Z66.82° ENE
4 mins2025-05-09 17:02:05.181Z298.491° NW2025-05-09 17:04:05.181Z53.896° ENE37.608°2025-05-09 17:06:05.181Z92.036° ESE
|